Weather History for Cody, WY

Change the Weather History Date:

Tuesday, December 18, 2012

  Actual Average Record
Temperature  
Mean Temperature 21 °F -  
Max Temperature 30 °F 37 °F 62 °F (1979)
Min Temperature 12 °F 14 °F -31 °F (1924)
Degree Days  
Heating Degree Days 44    
Moisture  
Dew Point 6 °F    
Average Humidity 48    
Maximum Humidity 74    
Minimum Humidity 29    
Precipitation  
Precipitation 0.00 in - - ()
Sea Level Pressure  
Sea Level Pressure 29.67 in    
Wind  
Wind Speed 12 mph (West)    
Max Wind Speed 20 mph    
Max Gust Speed 31 mph    
Visibility 10 miles    
Events      
Averages and records for this station are not official NWS values.
T = Trace of Precipitation, MM = Missing Value Source: NWS Daily Summary

Daily Weather History Graph

Daily Weather History Graph

Search for Another Location

Airport:

Trip Planner

Search our weather history database for the weather conditions in past years. The results will help you decide how hot, cold, wet, or windy it might be!

Date:

Astronomy

Dec. 18, 2012 Rise Set
Actual Time 7:48 AM MST 4:37 PM MST
Civil Twilight 7:14 AM MST 5:11 PM MST
Nautical Twilight 6:37 AM MST 5:48 PM MST
Astronomical Twilight 6:02 AM MST 6:23 PM MST
Moon 11:16 AM MST (12/18) 11:21 PM MST (12/18)
Length of Visible Light 9h 56m
Length of Day
8h 49m
Waxing Crescent, 35% of the Moon is Illuminated
Dec 18
Waxing Crescent
Dec 19
First Quarter
Dec 28
Full
Jan 4
Last Quarter
Jan 11
New

Hourly Weather History & Observations

Time (MST) Temp. Windchill Dew Point Humidity Pressure Visibility Wind Dir Wind Speed Gust Speed Precip Events Conditions
12:15 AM 30.2 °F 19.8 °F 10.4 °F 44% 29.55 in 10.0 mi WSW 13.8 mph 21.9 mph N/A   Clear
12:35 AM 28.4 °F 16.6 °F 10.4 °F 47% 29.55 in 10.0 mi WSW 16.1 mph 27.6 mph N/A   Clear
12:55 AM 28.4 °F 16.6 °F 12.2 °F 51% 29.56 in 10.0 mi WSW 16.1 mph 31.1 mph N/A   Clear
1:15 AM 28.4 °F 17.5 °F 10.4 °F 47% 29.57 in 10.0 mi WSW 13.8 mph 26.5 mph N/A   Clear
1:35 AM 28.4 °F 18.0 °F 8.6 °F 43% 29.58 in 10.0 mi WSW 12.7 mph 23.0 mph N/A   Clear
1:55 AM 28.4 °F 17.5 °F 10.4 °F 47% 29.59 in 10.0 mi WSW 13.8 mph 23.0 mph N/A   Clear
2:35 AM 26.6 °F 14.3 °F 10.4 °F 51% 29.60 in 10.0 mi WSW 16.1 mph 19.6 mph N/A   Clear
2:55 AM 26.6 °F 14.7 °F 8.6 °F 47% 29.60 in 10.0 mi SW 15.0 mph 24.2 mph N/A   Partly Cloudy
3:55 AM 26.6 °F 18.2 °F 10.4 °F 51% 29.61 in 10.0 mi WSW 8.1 mph - N/A   Partly Cloudy
4:15 AM 26.6 °F 16.2 °F 10.4 °F 51% 29.61 in 10.0 mi West 11.5 mph 18.4 mph N/A   Partly Cloudy
4:35 AM 26.6 °F 15.7 °F 10.4 °F 51% 29.61 in 10.0 mi WSW 12.7 mph 19.6 mph N/A   Mostly Cloudy
4:55 AM 26.6 °F 15.7 °F 14.0 °F 59% 29.62 in 10.0 mi WSW 12.7 mph 25.3 mph N/A   Overcast
5:15 AM 23.0 °F 10.6 °F 15.8 °F 74% 29.63 in 9.0 mi WSW 13.8 mph 27.6 mph N/A   Mostly Cloudy
5:35 AM 24.8 °F 12.9 °F 15.8 °F 69% 29.63 in 10.0 mi WSW 13.8 mph 25.3 mph N/A   Partly Cloudy
5:55 AM 24.8 °F 12.4 °F 14.0 °F 64% 29.64 in 10.0 mi West 15.0 mph 24.2 mph N/A   Clear
6:15 AM 24.8 °F 12.4 °F 12.2 °F 59% 29.64 in 10.0 mi West 15.0 mph 21.9 mph N/A   Partly Cloudy
6:35 AM 24.8 °F 12.4 °F 12.2 °F 59% 29.65 in 10.0 mi WSW 15.0 mph 23.0 mph N/A   Partly Cloudy
6:55 AM 24.8 °F 14.0 °F 12.2 °F 59% 29.65 in 10.0 mi WSW 11.5 mph 20.7 mph N/A   Scattered Clouds
7:16 AM 24.8 °F 13.4 °F 10.4 °F 54% 29.66 in 10.0 mi WSW 12.7 mph 20.7 mph N/A   Overcast
7:35 AM 24.8 °F 12.9 °F 12.2 °F 59% 29.66 in 10.0 mi West 13.8 mph 25.3 mph N/A   Overcast
7:55 AM 23.0 °F 11.1 °F 12.2 °F 63% 29.66 in 10.0 mi West 12.7 mph 24.2 mph N/A   Mostly Cloudy
8:15 AM 23.0 °F 11.1 °F 12.2 °F 63% 29.66 in 10.0 mi West 12.7 mph 19.6 mph N/A   Clear
8:55 AM 24.8 °F 12.4 °F 8.6 °F 50% 29.66 in 10.0 mi WSW 15.0 mph 26.5 mph N/A   Clear
9:15 AM 24.8 °F 10.7 °F 8.6 °F 50% 29.66 in 10.0 mi WSW 19.6 mph 25.3 mph N/A   Clear
9:35 AM 24.8 °F 11.9 °F 8.6 °F 50% 29.66 in 10.0 mi WSW 16.1 mph 24.2 mph N/A   Clear
9:55 AM 24.8 °F 12.4 °F 8.6 °F 50% 29.67 in 10.0 mi West 15.0 mph 24.2 mph N/A   Clear
10:15 AM 24.8 °F 12.9 °F 6.8 °F 46% 29.67 in 10.0 mi WSW 13.8 mph 20.7 mph N/A   Clear
10:35 AM 24.8 °F 11.5 °F 8.6 °F 50% 29.67 in 10.0 mi West 17.3 mph 25.3 mph N/A   Clear
10:55 AM 24.8 °F 11.9 °F 8.6 °F 50% 29.66 in 10.0 mi West 16.1 mph 28.8 mph N/A   Clear
11:15 AM 24.8 °F 11.9 °F 8.6 °F 50% 29.65 in 10.0 mi West 16.1 mph 28.8 mph N/A   Clear
11:35 AM 24.8 °F 11.9 °F 8.6 °F 50% 29.65 in 10.0 mi West 16.1 mph 28.8 mph N/A   Clear
11:55 AM 24.8 °F 11.9 °F 8.6 °F 50% 29.66 in 10.0 mi West 16.1 mph 27.6 mph N/A   Clear
12:15 PM 26.6 °F 14.7 °F 6.8 °F 43% 29.66 in 10.0 mi WSW 15.0 mph 27.6 mph N/A   Clear
12:35 PM 26.6 °F 13.8 °F 6.8 °F 43% 29.66 in 10.0 mi West 17.3 mph 26.5 mph N/A   Clear
12:55 PM 26.6 °F 15.2 °F 6.8 °F 43% 29.65 in 10.0 mi WSW 13.8 mph 23.0 mph N/A   Clear
1:15 PM 26.6 °F 14.7 °F 6.8 °F 43% 29.65 in 10.0 mi West 15.0 mph 21.9 mph N/A   Clear
1:35 PM 26.6 °F 18.2 °F 6.8 °F 43% 29.65 in 10.0 mi West 8.1 mph 16.1 mph N/A   Clear
1:55 PM 26.6 °F 19.1 °F 3.2 °F 37% 29.66 in 10.0 mi West 6.9 mph 16.1 mph N/A   Clear
2:15 PM 26.6 °F 16.2 °F -2.2 °F 29% 29.67 in 10.0 mi WNW 11.5 mph - N/A   Clear
2:55 PM 26.6 °F 18.2 °F -2.2 °F 29% 29.66 in 10.0 mi West 8.1 mph - N/A   Clear
3:15 PM 26.6 °F 19.1 °F -0.4 °F 31% 29.67 in 10.0 mi WNW 6.9 mph - N/A   Clear
3:35 PM 26.6 °F 20.0 °F 1.4 °F 34% 29.67 in 10.0 mi WNW 5.8 mph 16.1 mph N/A   Clear
3:55 PM 26.6 °F 20.0 °F -0.4 °F 31% 29.67 in 10.0 mi WNW 5.8 mph - N/A   Clear
4:15 PM 24.8 °F 17.9 °F -2.2 °F 31% 29.68 in 10.0 mi WNW 5.8 mph - N/A   Clear
4:35 PM 23.0 °F 18.4 °F -4.0 °F 31% 29.69 in 10.0 mi West 3.5 mph - N/A   Clear
4:55 PM 19.4 °F - -5.8 °F 33% 29.69 in 10.0 mi Calm Calm - N/A   Clear
5:15 PM 17.6 °F - -2.2 °F 42% 29.70 in 10.0 mi Calm Calm - N/A   Clear
5:35 PM 19.4 °F 12.8 °F -2.2 °F 39% 29.71 in 10.0 mi NNW 4.6 mph - N/A   Clear
5:55 PM 15.8 °F - -2.2 °F 45% 29.71 in 10.0 mi Calm Calm - N/A   Clear
6:35 PM 17.6 °F 10.7 °F -0.4 °F 45% 29.72 in 10.0 mi NNW 4.6 mph - N/A   Clear
6:55 PM 17.6 °F 12.3 °F -2.2 °F 42% 29.73 in 10.0 mi SSW 3.5 mph - N/A   Clear
7:15 PM 15.8 °F 10.2 °F -0.4 °F 49% 29.74 in 10.0 mi WNW 3.5 mph - N/A   Clear
7:35 PM 19.4 °F 10.4 °F -0.4 °F 42% 29.74 in 10.0 mi West 6.9 mph - N/A   Clear
7:55 PM 19.4 °F 10.4 °F 1.4 °F 46% 29.74 in 10.0 mi West 6.9 mph - N/A   Clear
8:15 PM 19.4 °F 11.5 °F -0.4 °F 42% 29.75 in 10.0 mi West 5.8 mph - N/A   Clear
8:35 PM 17.6 °F 9.3 °F -0.4 °F 45% 29.75 in 10.0 mi West 5.8 mph - N/A   Clear
8:55 PM 15.8 °F 6.1 °F 1.4 °F 53% 29.76 in 10.0 mi West 6.9 mph - N/A   Clear
9:15 PM 14.0 °F - 1.4 °F 57% 29.76 in 10.0 mi Calm Calm - N/A   Clear
9:55 PM 15.8 °F 7.2 °F 3.2 °F 58% 29.76 in 10.0 mi WSW 5.8 mph - N/A   Clear
10:15 PM 15.8 °F 10.2 °F 3.2 °F 58% 29.77 in 10.0 mi WSW 3.5 mph - N/A   Clear
10:35 PM 12.2 °F 2.9 °F 1.4 °F 62% 29.77 in 10.0 mi SW 5.8 mph - N/A   Clear
10:55 PM 15.8 °F 6.1 °F 3.2 °F 58% 29.77 in 10.0 mi SW 6.9 mph - N/A   Clear
11:35 PM 15.8 °F 5.1 °F 1.4 °F 53% 29.78 in 10.0 mi SW 8.1 mph - N/A   Clear
11:55 PM 17.6 °F 10.7 °F 3.2 °F 53% 29.78 in 10.0 mi WSW 4.6 mph - N/A   Clear